Time,TemperatureF,DewpointF,PressureIn,WindDirection,WindDirectionDegrees,WindSpeedMPH,WindSpeedGustMPH,Humidity,HourlyPrecipIn,Conditions,Clouds,dailyrainin,SoftwareType,DateUTC
2013-03-15 00:00:00,24.4,20.0,30.09,NNE,23,14.5,20.4,83,0.00,,,0.00,WUHU216HW,2013-03-15 05:00:00,
2013-03-15 00:05:00,24.0,19.6,30.09,NNE,23,18.6,22.6,84,0.00,,,0.00,WUHU216HW,2013-03-15 05:05:00,
2013-03-15 00:10:00,24.0,19.9,30.09,NNE,23,18.1,22.6,84,0.00,,,0.00,WUHU216HW,2013-03-15 05:10:00,
2013-03-15 00:15:00,23.9,19.7,30.09,North,0,18.1,19.8,84,0.00,,,0.00,WUHU216HW,2013-03-15 05:15:00,
2013-03-15 00:20:00,23.7,19.4,30.09,NNE,23,23.3,24.5,84,0.00,,,0.00,WUHU216HW,2013-03-15 05:20:00,
2013-03-15 00:25:00,23.5,19.4,30.09,NE,34,20.5,24.5,84,0.00,,,0.00,WUHU216HW,2013-03-15 05:25:00,
2013-03-15 00:30:00,23.3,19.2,30.09,NNE,23,24.5,24.5,84,0.00,,,0.00,WUHU216HW,2013-03-15 05:30:00,
2013-03-15 00:35:00,23.1,19.0,30.09,NNE,23,24.5,24.5,84,0.00,,,0.00,WUHU216HW,2013-03-15 05:35:00,
2013-03-15 00:40:00,22.8,18.6,30.09,NNE,23,23.1,24.5,84,0.00,,,0.00,WUHU216HW,2013-03-15 05:40:00,
2013-03-15 00:45:00,22.6,18.5,30.09,NNE,23,21.2,24.5,84,0.00,,,0.00,WUHU216HW,2013-03-15 05:45:00,
2013-03-15 00:50:00,22.2,18.1,30.09,NNE,23,27.4,27.4,84,0.00,,,0.00,WUHU216HW,2013-03-15 05:50:00,
2013-03-15 00:55:00,22.2,18.1,30.09,NNE,23,26.3,32.1,84,0.00,,,0.00,WUHU216HW,2013-03-15 05:55:00,
2013-03-15 01:00:00,21.9,17.5,30.09,North,11,30.7,32.1,83,0.00,,,0.00,WUHU216HW,2013-03-15 06:00:00,
2013-03-15 01:05:00,21.7,17.5,30.09,North,0,27.6,31.0,83,0.00,,,0.00,WUHU216HW,2013-03-15 06:05:00,
2013-03-15 01:10:00,21.7,17.6,30.10,NNE,12,23.9,27.6,84,0.00,,,0.00,WUHU216HW,2013-03-15 06:10:00,
2013-03-15 01:15:00,21.7,17.3,30.10,North,11,28.8,30.1,83,0.00,,,0.00,WUHU216HW,2013-03-15 06:15:00,
2013-03-15 01:20:00,21.5,17.1,30.09,North,0,22.9,30.1,83,0.00,,,0.00,WUHU216HW,2013-03-15 06:20:00,
2013-03-15 01:25:00,21.3,16.9,30.08,North,11,24.0,27.4,83,0.00,,,0.00,WUHU216HW,2013-03-15 06:25:00,
2013-03-15 01:30:00,21.3,16.9,30.08,NNE,23,27.9,27.9,83,0.00,,,0.00,WUHU216HW,2013-03-15 06:30:00,
2013-03-15 01:35:00,21.2,16.7,30.08,North,0,26.3,27.9,83,0.00,,,0.00,WUHU216HW,2013-03-15 06:35:00,
2013-03-15 01:40:00,21.0,16.8,30.08,NNE,23,17.3,27.9,84,0.00,,,0.00,WUHU216HW,2013-03-15 06:40:00,
2013-03-15 01:45:00,21.2,17.0,30.08,NE,45,19.6,26.3,84,0.00,,,0.00,WUHU216HW,2013-03-15 06:45:00,
2013-03-15 01:50:00,21.3,17.2,30.08,NNE,23,18.6,21.8,84,0.00,,,0.00,WUHU216HW,2013-03-15 06:50:00,
2013-03-15 01:55:00,21.3,17.2,30.07,NNE,23,18.1,18.6,84,0.00,,,0.00,WUHU216HW,2013-03-15 06:55:00,
2013-03-15 02:00:00,21.3,17.2,30.08,NNE,23,13.9,19.0,84,0.00,,,0.00,WUHU216HW,2013-03-15 07:00:00,
2013-03-15 02:05:00,21.7,17.6,30.07,NNE,23,23.1,23.1,84,0.00,,,0.00,WUHU216HW,2013-03-15 07:05:00,
2013-03-15 02:10:00,21.7,17.6,30.06,NE,45,19.0,23.1,84,0.00,,,0.00,WUHU216HW,2013-03-15 07:10:00,
2013-03-15 02:15:00,21.5,17.4,30.07,NNE,23,20.8,24.3,84,0.00,,,0.00,WUHU216HW,2013-03-15 07:15:00,
2013-03-15 02:20:00,21.3,17.2,30.07,NNE,23,13.6,24.3,84,0.00,,,0.00,WUHU216HW,2013-03-15 07:20:00,
2013-03-15 02:25:00,21.3,17.2,30.06,NE,45,13.6,17.3,84,0.00,,,0.00,WUHU216HW,2013-03-15 07:25:00,
2013-03-15 02:30:00,21.0,17.1,30.07,NNE,23,12.5,16.8,85,0.00,,,0.00,WUHU216HW,2013-03-15 07:30:00,
2013-03-15 02:35:00,21.0,17.1,30.07,NE,45,6.9,16.8,85,0.00,,,0.00,WUHU216HW,2013-03-15 07:35:00,
2013-03-15 02:40:00,21.0,17.1,30.07,NNE,23,19.0,19.0,85,0.00,,,0.00,WUHU216HW,2013-03-15 07:40:00,
2013-03-15 02:45:00,21.0,17.1,30.06,NNE,23,19.5,20.6,85,0.00,,,0.00,WUHU216HW,2013-03-15 07:45:00,
2013-03-15 02:50:00,21.3,17.5,30.06,NE,45,4.8,20.6,85,0.00,,,0.00,WUHU216HW,2013-03-15 07:50:00,
2013-03-15 02:55:00,21.3,17.5,30.06,NNE,23,9.1,19.5,85,0.00,,,0.00,WUHU216HW,2013-03-15 07:55:00,
2013-03-15 03:00:00,21.3,17.5,30.06,NE,45,20.9,20.9,85,0.00,,,0.00,WUHU216HW,2013-03-15 08:00:00,
2013-03-15 03:05:00,21.0,17.1,30.06,NNE,23,19.5,20.9,85,0.00,,,0.00,WUHU216HW,2013-03-15 08:05:00,
2013-03-15 03:10:00,21.0,17.1,30.06,NNE,23,20.4,20.9,85,0.00,,,0.00,WUHU216HW,2013-03-15 08:10:00,
2013-03-15 03:15:00,20.8,17.2,30.06,NNE,23,17.7,20.6,86,0.00,,,0.00,WUHU216HW,2013-03-15 08:15:00,
2013-03-15 03:20:00,20.6,17.0,30.06,NNE,23,18.4,20.6,86,0.00,,,0.00,WUHU216HW,2013-03-15 08:20:00,
2013-03-15 03:25:00,20.4,16.8,30.05,NNE,23,18.4,20.1,86,0.00,,,0.00,WUHU216HW,2013-03-15 08:25:00,
2013-03-15 03:30:00,20.3,16.7,30.05,NNE,23,17.7,20.1,86,0.00,,,0.00,WUHU216HW,2013-03-15 08:30:00,
2013-03-15 03:35:00,20.3,16.7,30.04,NNE,23,18.4,19.5,86,0.00,,,0.00,WUHU216HW,2013-03-15 08:35:00,
2013-03-15 03:40:00,20.4,16.8,30.04,NNE,23,18.4,18.4,86,0.00,,,0.00,WUHU216HW,2013-03-15 08:40:00,
2013-03-15 03:45:00,20.4,16.8,30.03,NNE,23,13.4,18.4,86,0.00,,,0.00,WUHU216HW,2013-03-15 08:45:00,
2013-03-15 03:50:00,20.4,16.8,30.03,NNE,23,13.4,18.4,86,0.00,,,0.00,WUHU216HW,2013-03-15 08:50:00,
2013-03-15 03:55:00,20.4,16.8,30.03,NNE,23,13.4,13.4,86,0.00,,,0.00,WUHU216HW,2013-03-15 08:55:00,
2013-03-15 04:00:00,20.4,16.8,30.02,NNE,23,13.4,13.4,86,0.00,,,0.00,WUHU216HW,2013-03-15 09:00:00,
2013-03-15 04:05:00,20.4,16.8,30.03,NNE,23,11.4,13.4,86,0.00,,,0.00,WUHU216HW,2013-03-15 09:05:00,
2013-03-15 04:10:00,20.4,16.8,30.02,NNE,23,11.4,13.4,86,0.00,,,0.00,WUHU216HW,2013-03-15 09:10:00,
2013-03-15 04:15:00,20.4,16.8,30.03,NNE,23,11.4,11.4,86,0.00,,,0.00,WUHU216HW,2013-03-15 09:15:00,
2013-03-15 04:20:00,20.4,16.8,30.03,NNE,23,11.4,11.4,86,0.00,,,0.00,WUHU216HW,2013-03-15 09:20:00,
2013-03-15 04:25:00,20.4,16.8,30.03,NNE,23,11.4,11.4,86,0.00,,,0.00,WUHU216HW,2013-03-15 09:25:00,
2013-03-15 05:55:00,19.4,15.5,30.01,NNE,23,13.1,13.1,85,0.00,,,0.00,WUHU216HW,2013-03-15 10:55:00,
2013-03-15 06:00:00,19.2,15.3,30.01,NNE,23,6.6,13.1,85,0.00,,,0.00,WUHU216HW,2013-03-15 11:00:00,
2013-03-15 06:05:00,19.2,15.3,30.01,NNE,23,9.1,13.1,85,0.00,,,0.00,WUHU216HW,2013-03-15 11:05:00,
2013-03-15 06:10:00,19.2,15.3,30.01,NNE,23,5.3,9.1,85,0.00,,,0.00,WUHU216HW,2013-03-15 11:10:00,
2013-03-15 06:16:00,19.2,15.3,30.01,NNE,23,1.6,8.9,85,0.00,,,0.00,WUHU216HW,2013-03-15 11:16:00,
2013-03-15 06:21:00,19.2,15.3,30.01,NE,45,6.9,6.9,85,0.00,,,0.00,WUHU216HW,2013-03-15 11:21:00,
2013-03-15 06:26:00,19.2,15.3,30.01,NE,45,6.9,6.9,85,0.00,,,0.00,WUHU216HW,2013-03-15 11:26:00,
2013-03-15 06:31:00,19.2,15.3,30.01,NE,45,6.9,6.9,85,0.00,,,0.00,WUHU216HW,2013-03-15 11:31:00,
2013-03-15 06:36:00,19.2,15.3,30.02,NNE,23,10.6,10.6,85,0.00,,,0.00,WUHU216HW,2013-03-15 11:36:00,
2013-03-15 06:41:00,19.2,15.3,30.01,NNE,23,10.6,10.6,85,0.00,,,0.00,WUHU216HW,2013-03-15 11:41:00,
2013-03-15 06:46:00,19.2,15.3,30.02,NNE,23,10.6,10.6,85,0.00,,,0.00,WUHU216HW,2013-03-15 11:46:00,
2013-03-15 06:51:00,19.2,15.3,30.02,NNE,23,10.6,10.6,85,0.00,,,0.00,WUHU216HW,2013-03-15 11:51:00,
2013-03-15 09:13:00,18.3,14.4,30.01,NE,45,0.0,0.0,85,0.00,,,0.00,WUHU216HW,2013-03-15 14:13:00,
2013-03-15 09:18:00,18.3,14.4,30.01,NE,45,0.0,0.0,85,0.00,,,0.00,WUHU216HW,2013-03-15 14:18:00,
2013-03-15 09:23:00,18.6,14.8,30.01,NE,45,0.0,0.0,85,0.00,,,0.00,WUHU216HW,2013-03-15 14:23:00,
2013-03-15 09:28:00,18.6,14.8,30.01,NNE,23,0.0,0.0,85,0.00,,,0.00,WUHU216HW,2013-03-15 14:28:00,
2013-03-15 09:33:00,18.6,14.5,30.01,NE,45,0.0,0.0,84,0.00,,,0.00,WUHU216HW,2013-03-15 14:33:00,
2013-03-15 09:38:00,19.0,15.1,30.01,NNE,23,0.0,0.0,85,0.00,,,0.00,WUHU216HW,2013-03-15 14:38:00,
2013-03-15 09:43:00,19.0,14.9,30.01,NNE,23,0.0,0.0,84,0.00,,,0.00,WUHU216HW,2013-03-15 14:43:00,
2013-03-15 09:48:00,19.0,14.9,30.01,NNE,23,0.0,0.0,84,0.00,,,0.00,WUHU216HW,2013-03-15 14:48:00,
2013-03-15 09:53:00,19.2,15.0,30.00,NE,45,0.0,0.0,84,0.00,,,0.00,WUHU216HW,2013-03-15 14:53:00,
2013-03-15 09:58:00,19.2,15.0,30.00,NE,45,0.0,0.0,84,0.00,,,0.00,WUHU216HW,2013-03-15 14:58:00,
2013-03-15 10:03:00,19.2,15.0,30.00,NE,45,0.0,0.0,84,0.00,,,0.00,WUHU216HW,2013-03-15 15:03:00,
2013-03-15 10:08:00,19.2,15.0,30.00,NE,45,0.0,0.0,84,0.00,,,0.00,WUHU216HW,2013-03-15 15:08:00,
2013-03-15 10:13:00,19.2,15.0,30.00,NE,45,0.0,0.0,84,0.00,,,0.00,WUHU216HW,2013-03-15 15:13:00,
2013-03-15 10:34:00,20.4,16.0,30.00,NNE,23,0.0,0.0,83,0.00,,,0.00,WUHU216HW,2013-03-15 15:34:00,
2013-03-15 10:39:00,20.1,15.7,30.01,NNE,23,0.0,0.0,83,0.00,,,0.00,WUHU216HW,2013-03-15 15:39:00,
2013-03-15 10:44:00,20.1,15.7,29.99,NE,45,0.0,0.0,83,0.00,,,0.00,WUHU216HW,2013-03-15 15:44:00,
2013-03-15 10:49:00,20.8,16.7,29.99,NNE,23,0.0,0.0,84,0.00,,,0.00,WUHU216HW,2013-03-15 15:49:00,
2013-03-15 10:54:00,21.0,16.8,29.99,NE,45,0.0,0.0,84,0.00,,,0.00,WUHU216HW,2013-03-15 15:54:00,
2013-03-15 10:57:00,21.0,16.8,29.99,NNE,23,0.0,0.0,84,0.00,,,0.00,WUHU216HW,2013-03-15 15:57:00,
2013-03-15 10:59:00,21.0,16.8,29.99,NNE,23,0.0,0.0,84,0.00,,,0.00,WUHU216HW,2013-03-15 15:59:00,
2013-03-15 11:04:00,21.0,16.8,29.99,NNE,23,0.0,0.0,84,0.00,,,0.00,WUHU216HW,2013-03-15 16:04:00,